Tracking 25709 objects as of 24-May-2022
HD Live streaming from Space Station
objects crossing your sky now

COSMOS 2491 DEB

Track COSMOS 2491 DEB now!
10-day predictions


NORAD ID: 44998
Int'l Code: 2013-076T
Perigee: 1,338.4 km
Apogee: 1,513.1 km
Inclination: 82.5 °
Period: 114.2 minutes
Semi major axis: 7796 km
RCS: Unknown
Launch date: December 25, 2013
Source: Commonwealth of Independent States (former USSR) (CIS)
Launch site: PLESETSK MISSILE AND SPACE COMPLEX (PKMTR)

Note: This is SATELLITE DEBRIS
aabbcc
Your satellite tracking list
Your tracking list is empty




NASA's NSSDC Master Catalog

Two Line Element Set (TLE):
1 44998U 13076S   22143.85248108 -.00000046  00000-0 -30892-3 0  9996
2 44998  82.4676 355.8656 0112060 292.1197  66.8028 12.61046080109602
Source of the keplerian elements: AFSPC